Weather History for Fort Drum, NY

Change the Weather History Date:

Friday, November 29, 2013

  Actual Average Record
Temperature  
Mean Temperature 10 °F -  
Max Temperature 19 °F 37 °F 66 °F (2005)
Min Temperature 2 °F 23 °F 2 °F (2013)
Degree Days  
Heating Degree Days 54    
Moisture  
Dew Point 5 °F    
Average Humidity 84    
Maximum Humidity 92    
Minimum Humidity 61    
Precipitation  
Precipitation 0.00 in - - ()
Sea Level Pressure  
Sea Level Pressure 30.64 in    
Wind  
Wind Speed 3 mph (SE)    
Max Wind Speed 6 mph    
Max Gust Speed -    
Visibility 9 miles    
Events      
Averages and records for this station are not official NWS values.
T = Trace of Precipitation, MM = Missing Value Source: NWS Daily Summary

Daily Weather History Graph

Daily Weather History Graph

Search for Another Location

Airport:

Trip Planner

Search our weather history database for the weather conditions in past years. The results will help you decide how hot, cold, wet, or windy it might be!

Date:

Astronomy

Nov. 29, 2013 Rise Set
Actual Time 7:15 AM EST 4:26 PM EST
Civil Twilight 6:43 AM EST 4:58 PM EST
Nautical Twilight 6:07 AM EST 5:34 PM EST
Astronomical Twilight 5:32 AM EST 6:09 PM EST
Moon 3:11 AM EST (11/29) 2:15 PM EST (11/29)
Length of Visible Light 10h 15m
Length of Day
9h 10m
Waning Crescent, 14% of the Moon is Illuminated
Nov 29
Waning Crescent
Dec 2
New
Dec 9
First Quarter
Dec 17
Full
Dec 25
Last Quarter

Hourly Weather History & Observations

Time (EST) Temp. Windchill Dew Point Humidity Pressure Visibility Wind Dir Wind Speed Gust Speed Precip Events Conditions
12:58 AM 12.0 °F 5.9 °F 8.4 °F 85% 30.45 in 10.0 mi ESE 3.5 mph - N/A   Overcast
1:58 AM 8.8 °F 0.4 °F 5.7 °F 87% 30.48 in 10.0 mi ESE 4.6 mph - N/A   Overcast
2:58 AM 5.9 °F - 2.8 °F 87% 30.50 in 10.0 mi East 2.3 mph - N/A   Overcast
3:48 AM 5.0 °F - 3.2 °F 92% 30.45 in 2.5 mi SE 2.3 mph - N/A   Overcast
3:53 AM 5.0 °F - 1.4 °F 85% 30.45 in 3.0 mi SE 2.3 mph - N/A   Overcast
3:58 AM 4.5 °F -2.7 °F 2.1 °F 90% 30.51 in 6.0 mi SE 3.5 mph - N/A   Overcast
4:58 AM 5.2 °F -1.9 °F 2.8 °F 90% 30.52 in 10.0 mi SE 3.5 mph - N/A   Mostly Cloudy
5:58 AM 2.8 °F -4.6 °F -0.0 °F 88% 30.54 in 10.0 mi ESE 3.5 mph - N/A   Clear
6:58 AM 3.4 °F -4.0 °F 1.0 °F 90% 30.56 in 10.0 mi SE 3.5 mph - N/A   Clear
7:58 AM 3.2 °F -4.2 °F 0.7 °F 89% 30.59 in 10.0 mi SSE 3.5 mph - N/A   Clear
8:58 AM 7.7 °F - 5.5 °F 91% 30.62 in 10.0 mi SE 2.3 mph - N/A   Clear
9:58 AM 12.7 °F - 10.9 °F 92% 30.64 in 10.0 mi North 2.3 mph - N/A   Clear
10:58 AM 14.9 °F - 10.2 °F 82% 30.66 in 10.0 mi ENE 2.3 mph - N/A   Clear
11:58 AM 16.9 °F - 9.7 °F 73% 30.66 in 10.0 mi East 2.3 mph - N/A   Clear
12:58 PM 18.9 °F - 10.9 °F 71% 30.66 in 10.0 mi North 1.2 mph - N/A   Clear
1:58 PM 19.6 °F 13.0 °F 8.2 °F 61% 30.66 in 10.0 mi NW 4.6 mph - N/A   Clear
2:58 PM 18.9 °F - 9.0 °F 65% 30.68 in 10.0 mi WNW 2.3 mph - N/A   Clear
3:58 PM 17.6 °F - 9.0 °F 69% 30.70 in 10.0 mi NW 2.3 mph - N/A   Clear
4:58 PM 12.6 °F - 8.4 °F 83% 30.71 in 10.0 mi WNW 2.3 mph - N/A   Clear
5:58 PM 10.4 °F - 6.8 °F 85% 30.74 in 10.0 mi Calm Calm - N/A   Clear
6:58 PM 3.9 °F - 1.4 °F 89% 30.76 in 10.0 mi South 2.3 mph - N/A   Clear
7:58 PM 5.7 °F -3.2 °F 3.2 °F 89% 30.77 in 10.0 mi SSE 4.6 mph - N/A   Clear
8:38 PM 5.0 °F -4.1 °F 1.4 °F 85% 30.71 in 2.5 mi South 4.6 mph - N/A   Clear
8:43 PM 5.0 °F -2.1 °F 1.4 °F 85% 30.71 in 3.0 mi South 3.5 mph - N/A   Clear
8:58 PM 3.9 °F -3.4 °F 1.2 °F 89% 30.77 in 10.0 mi SSE 3.5 mph - N/A   Clear
9:58 PM 2.8 °F -6.6 °F -0.0 °F 88% 30.77 in 10.0 mi SSE 4.6 mph - N/A   Clear
10:58 PM 4.5 °F -6.3 °F 2.1 °F 90% 30.77 in 10.0 mi SE 5.8 mph - N/A   Clear
11:58 PM 6.1 °F -4.3 °F 3.6 °F 89% 30.77 in 10.0 mi SE 5.8 mph - N/A   Clear